Location: Passau
(48.5830°N, 13.4830°E)
Time: 02:19:47
(UTC+01:00)

NOAA 19 - Pass Details

Date: 06 December 2021
Orbit: 841 x 860 km, 99.2° (Epoch: 17 January)

Event Time Altitude Azimuth Distance (km) Brightness Sun altitude
Rises 19:09:49 0° 179° (S) 3,383 8.4 -28.6°
Reaches altitude 10° 19:12:15 10° 185° (S) 2,454 7.7 -29.0°
Maximum altitude 19:17:31 50° 260° (W) 1,072 6.0 -29.8°
Drops below altitude 10° 19:22:51 10° 335° (NNW) 2,479 7.9 -30.7°
Sets 19:25:19 0° 341° (NNW) 3,422 8.6 -31.1°
